Tracking 22993 objects as of 10-May-2021
HD Live streaming from Space Station
objects crossing your sky now

ARIANE 1 DEB

Track ARIANE 1 DEB now!


NORAD ID: 27732
Int'l Code: 1979-104S
Perigee: 815.1 km
Apogee: 40,898.0 km
Inclination: 15.3 °
Period: 745.2 minutes
Semi major axis: 27227 km
RCS: 0.2067 m2 (medium)
Launch date: December 24, 1979
Source: European Space Agency (ESA)
Launch site: FRENCH GUIANA (FRGUI)

Note: This is SATELLITE DEBRIS
aabbcc
Your satellite tracking list
Your tracking list is empty




NASA's NSSDC Master Catalog

Two Line Element Set (TLE):
1 27732U 79104S   21127.32100511  .00000002  00000-0  15871-2 0  9994
2 27732  15.2805 170.7822 7360726 285.5369   9.9804  1.93237182 49953
Source of the keplerian elements: AFSPC